Вернуться в каталог

STARLINK-11599

АктивенСвязьVLEO
NORAD 63670·PAYLOAD·🇺🇸 United States

Запущен Apr 28, 2025 с Cape Canaveral Space Force Station

Loading…

Ближайшие Пролёты (ближайшие 24 часа)

TLE

СвежийSource: CelesTrak SupGP

Эпоха: Sep 14, 2026, 21:30 UTC

1 63670C 25085G   26257.89631944  .00063355  00000+0  49211-3 0  2576
2 63670  43.0009 218.1044 0001438 263.1497 228.3159 15.70805605    16

Отслеживайте STARLINK-11599 в реальном времени с AllMySat

Download on the App Store